Location: Chacón
(10.5789°N, 66.9317°W)
Time: 20:33:30
(UTC+00:00)

Sakura Rocket - Pass Details

Date: 12 August 2024
Orbit: 475 x 1710 km, 28.7° (Epoch: 09 September)

Event Time Altitude Azimuth Distance (km) Brightness Sun altitude
Exits shadow 06:35:11 13° 40° (NE) 2,619 6.7 -50.5°
Drops below altitude 10° 06:36:34 10° 50° (NE) 2,917 7.0 -50.2°
Sets 06:41:11 0° 70° (ENE) 4,182 7.9 -49.3°
